Weather in Lykhma

Russia / Khanty-Mansi Autonomous Okrug — Yugra     63°13′06″N   66°56′47″E
temp.,
°C
wind,
m/s
gust,
m/s
humid.,
%
clouds,
%
prec.,
mm/h
press.,
hPa
HPBL,
m
7 may, fri
fri723:00+2w7137190 0.3 9971076
02:000w7147686 0.0 998979
05:000w61591100 0.2 9991253
08:00+2wnw7137189 0.8 10011473
11:00+5wnw71452100 0.8 10041656
14:00+7nw7154894 0.0 10061872
17:00+8nw613475 0.0 10081679
20:00+4nnw411600 0.0 1011752
8 may, sat
sat823:000nw27771 0.0 1013251
02:00−1wnw27855 0.0 1015169
05:00−1nw15795 0.0 1017167
08:00+5nne125111 0.0 1017420
11:00+10sse1136100 0.0 1017639
14:00+10sse233969 0.0 1016571
17:00+16se244273 0.0 10151080
20:00+11ssw2489100 1.1 1016161
9 may, sun
sun923:00+8wnw512831 1.1 1018555
02:00+5nw389524 0.0 1020276
05:00+4nnw26964 0.0 1022180
08:00+9nne24660 0.0 1023619
11:00+13ne22445 0.0 10231127
14:00+16ene11345 0.0 10231503
17:00+16se223188 0.0 10231671
20:00+13se224372 0.0 102318
10 may, mon
mon1023:00+9sse3106235 0.0 1024233
02:00+8sse3106980 0.0 1023242
05:00+7s311749 0.0 1024295
08:00+12s485663 0.0 1023461
11:00+17s463910 0.0 10221039
14:00+19s55333 0.0 10201625
17:00+19s56326 0.0 10191809
20:00+16sse41042100 0.0 1018468
11 may, tue
tue1123:00+13sse41344100 0.0 1017449
02:00+8wnw4990100 0.4 1018480
05:00+5nw41190100 3.7 1020670
08:00+5nnw4118063 2.1 1021917
11:00+10nnw474978 2.1 10211909
14:00+13nnw463496 0.0 10212459
17:00+14nw352711 0.0 10212556
20:00+11ssw11378 0.0 102010